Wind_Speed
28 28 27 27 27 27 28 28 28 29 30 30 32 33 34 35 36 37 37 37 37 36 35 34 34 34 34 34 33 34 34 34 34 33 33 33 34 34 35 35 35 36 36
29 29 29 29 29 29 29 29 30 30 31 31 32 33 34 36 37 38 38 38 38 37 36 36 35 35 36 36 36 36 36 36 36 36 36 36 37 37 38 39 39 39 39
30 30 30 30 31 31 30 31 31 32 32 33 33 34 35 36 37 38 38 39 38 38 38 38 37 37 37 37 38 38 38 39 39 39 40 40 40 41 41 42 42 42 43
31 31 32 32 32 32 32 32 32 33 33 34 35 35 36 37 38 38 39 39 39 39 40 40 40 40 40 40 40 40 41 41 42 42 43 43 43 44 44 45 45 46 46
31 32 33 33 33 33 33 33 34 34 34 35 35 36 37 38 39 40 40 40 40 41 41 41 42 42 43 43 43 43 43 44 44 45 45 46 46 47 47 48 48 49 50
33 33 33 33 33 33 33 34 34 34 34 35 35 36 37 37 39 40 41 42 42 42 43 43 44 44 44 44 45 45 46 46 47 48 48 49 49 49 50 51 52 53 53
35 35 35 35 34 34 34 34 34 35 35 35 35 36 37 38 39 40 41 42 43 43 44 44 45 45 46 46 47 47 48 49 49 50 51 51 52 52 53 54 55 55 55
38 38 37 37 36 36 35 35 36 36 36 36 37 37 38 39 40 40 41 42 43 44 44 45 46 47 47 48 48 49 50 51 51 52 53 54 55 56 56 57 58 58 58
41 40 40 39 38 37 37 36 36 36 37 37 37 38 39 40 41 41 42 43 44 45 46 46 47 48 49 49 50 51 52 53 54 55 56 57 58 58 59 60 60 61 61
44 43 42 41 39 38 38 38 37 37 38 38 38 39 40 41 41 42 43 44 45 46 47 48 49 50 50 51 52 53 55 56 57 58 59 60 61 62 62 63 63 64 65
46 45 44 43 42 41 40 39 39 38 38 39 40 40 41 42 42 43 44 44 46 47 48 50 51 52 53 53 54 56 57 58 60 61 62 63 64 65 66 66 67 68 69
48 47 46 45 44 43 42 41 40 40 40 40 41 41 42 43 44 44 45 45 46 48 50 52 53 55 55 56 57 59 60 61 62 63 64 65 66 68 69 70 71 73 74
49 48 48 47 46 45 43 42 42 41 41 42 42 43 43 45 45 47 47 48 48 49 51 53 55 57 59 60 61 62 63 64 65 66 67 68 69 71 73 74 76 77 79
50 49 48 48 46 45 44 43 43 42 43 43 44 44 45 47 47 48 49 51 51 52 53 55 57 59 61 62 64 65 66 67 68 69 70 72 73 75 77 79 81 83 85
51 49 49 48 47 45 44 44 43 42 43 44 45 46 47 48 49 50 52 54 55 56 57 58 60 61 63 64 66 67 68 69 71 72 74 76 78 80 82 84 86 88 90
50 49 48 48 46 45 44 43 42 42 43 44 45 47 49 51 52 53 56 58 59 60 61 62 63 65 66 67 68 69 71 72 74 77 79 82 84 86 88 89 91 91 92
49 48 47 46 45 44 43 42 41 42 43 44 46 49 51 53 55 56 58 60 62 64 64 65 67 68 69 70 71 73 75 77 79 82 85 88 89 91 92 91 90 88 85
47 46 45 43 42 42 41 40 41 42 44 46 48 51 53 56 58 60 61 63 64 66 67 68 69 70 72 73 75 77 79 82 85 88 90 92 92 91 89 86 82 78 74
44 43 41 40 40 39 39 39 40 43 45 47 50 53 56 59 60 62 63 65 66 67 69 70 71 72 74 77 79 81 84 87 90 92 92 91 88 84 80 76 72 68 64
40 38 38 37 37 36 36 38 40 44 46 49 53 56 59 60 62 64 65 66 68 69 71 72 73 75 77 80 83 85 87 89 89 89 87 82 78 74 70 66 63 59 56
35 34 34 34 33 34 36 38 41 46 49 52 56 59 61 62 64 65 67 68 69 70 72 73 75 77 81 84 87 89 88 85 81 79 75 71 68 64 61 59 56 53 50
31 31 31 31 32 34 36 39 44 48 51 55 57 60 62 63 65 66 68 69 71 72 74 77 80 83 86 88 88 85 82 76 68 66 64 59 58 56 54 53 51 50 47
27 27 28 29 31 35 39 43 47 51 53 56 59 61 62 64 65 67 68 70 72 76 79 82 84 87 87 85 81 74 68 63 58 57 55 51 51 49 49 49 48 47 45
24 25 27 30 34 38 42 46 49 51 54 57 59 61 62 63 65 67 70 72 76 80 83 85 85 84 79 73 67 61 56 53 50 52 53 48 47 46 44 45 46 45 43
22 25 30 34 36 40 43 46 49 52 54 56 58 60 62 64 67 70 73 76 79 81 82 81 78 72 66 61 56 53 50 49 47 47 50 48 45 42 40 41 43 42 40
26 29 31 34 37 40 44 47 49 51 53 55 58 61 64 67 71 73 75 77 77 77 75 71 65 60 56 53 51 50 49 48 47 45 46 45 42 40 35 35 38 39 37
Wind_Direction
277 278 280 280 280 280 280 282 281 280 279 277 275 274 273 274 274 276 277 279 281 283 284 285 284 283 281 279 279 279 280 280 281 281 282 283 284 284 283 282 281 280 278
276 277 278 279 279 278 279 280 281 282 281 280 279 278 277 277 277 277 278 280 281 282 283 284 283 282 281 279 278 279 279 279 280 281 281 283 284 284 283 282 281 280 278
275 275 276 277 278 279 280 281 281 281 282 282 283 282 281 280 280 279 279 280 281 282 282 283 283 283 282 281 280 279 279 280 280 281 282 282 283 283 283 282 281 280 278
274 274 274 275 277 279 280 281 282 282 283 283 284 284 283 282 282 281 281 281 281 282 283 283 283 283 283 282 282 281 281 281 281 282 282 282 282 283 282 282 281 279 278
273 273 273 274 275 277 278 280 282 283 284 284 284 285 285 285 284 283 282 282 282 283 283 284 284 284 283 283 283 282 282 282 282 282 282 282 282 282 282 281 280 279 278
272 273 273 273 274 276 278 281 282 284 285 286 286 286 287 287 286 285 284 283 283 283 284 285 285 285 284 284 283 283 283 282 282 282 282 282 282 281 281 280 280 279 278
271 272 272 273 274 276 278 280 282 284 286 287 288 288 288 289 289 288 287 285 285 285 286 286 286 286 286 286 285 284 284 283 283 283 283 282 282 282 281 281 280 280 278
270 271 272 273 274 275 277 279 281 283 285 288 289 289 290 290 290 290 289 288 288 288 289 289 289 288 288 287 286 286 285 284 284 283 283 283 283 282 282 282 281 280 279
266 268 270 271 272 273 275 277 280 282 285 287 288 289 290 290 291 290 290 290 290 290 290 290 290 290 289 288 288 287 286 286 285 285 285 284 284 283 283 282 281 280 279
265 266 268 269 270 272 274 277 279 282 284 286 287 289 289 290 290 290 290 290 291 291 291 291 291 291 290 289 289 288 288 287 287 287 287 286 285 285 284 283 282 281 280
263 264 265 267 269 271 274 276 279 281 283 286 287 288 289 290 290 291 291 291 292 293 293 293 292 291 291 290 290 289 288 288 288 288 288 287 287 287 286 285 285 284 283
261 262 263 265 267 270 273 276 278 281 283 285 287 288 289 290 291 292 292 293 293 294 294 294 293 293 292 291 291 290 290 290 289 289 288 288 288 287 286 286 285 284 283
259 261 262 263 266 269 272 275 277 280 282 284 287 288 288 291 291 292 293 293 294 294 294 293 293 293 293 293 292 292 292 291 291 290 289 289 288 287 286 286 285 284 283
257 259 260 262 264 267 270 273 276 278 280 283 286 287 288 291 292 293 293 294 294 294 294 293 293 294 294 294 293 293 293 292 292 291 290 290 289 288 287 286 286 285 283
255 257 259 260 263 266 269 272 275 277 279 282 286 287 289 292 293 293 294 295 295 294 294 294 294 294 294 294 294 294 293 293 293 292 292 291 290 289 289 288 287 286 285
252 254 257 259 262 265 267 271 273 276 279 283 286 288 291 292 293 293 294 295 295 295 295 295 295 295 295 295 294 294 294 294 293 293 292 292 292 291 290 289 288 287 286
250 252 255 258 261 264 267 270 272 276 280 284 287 290 292 293 293 293 294 295 296 296 296 297 297 297 297 296 296 296 296 296 295 295 295 294 294 293 292 291 289 288 287
247 250 254 257 260 263 267 270 273 278 281 285 288 290 291 292 292 294 295 295 296 297 297 297 298 297 297 297 297 297 297 297 297 297 296 295 295 294 292 291 290 288 286
245 249 253 256 260 264 267 271 275 279 282 285 288 290 290 291 292 294 295 296 297 297 298 298 298 298 298 298 298 299 299 299 299 298 297 296 295 294 293 291 290 288 285
243 248 252 256 261 265 269 273 276 280 284 286 288 288 290 292 293 295 296 297 298 299 299 299 299 299 299 299 300 300 300 300 299 298 297 296 295 294 293 291 289 287 284
241 246 252 257 262 268 272 275 278 281 283 284 285 289 292 293 295 296 298 299 299 299 299 299 300 300 300 300 301 301 301 300 299 297 296 296 295 294 293 292 289 286 283
240 246 252 259 264 268 272 276 279 280 282 284 288 292 294 296 297 299 300 300 301 301 301 301 301 302 302 302 302 302 301 300 298 296 296 295 295 294 293 291 289 286 283
239 247 253 260 265 271 274 275 278 282 286 289 292 294 296 298 299 300 301 302 302 302 302 303 303 303 303 304 303 303 302 302 300 297 295 295 294 294 293 290 288 286 283
243 250 257 263 268 272 275 279 282 285 289 292 294 296 298 300 301 301 302 303 303 303 303 304 305 306 305 305 305 304 303 302 301 299 298 297 295 294 293 290 288 286 284
249 259 262 266 272 277 280 283 287 291 294 296 298 299 300 301 302 302 303 304 305 305 306 307 307 306 306 306 305 305 305 304 304 301 300 300 298 295 293 291 288 287 286
253 262 269 274 278 283 286 290 293 295 298 300 301 302 303 304 304 304 305 306 306 307 308 308 307 307 307 307 307 307 307 307 306 304 301 302 300 296 292 289 288 288 287
Height
5821 5821 5820 5820 5819 5819 5818 5817 5816 5815 5814 5814 5813 5812 5811 5810 5808 5807 5806 5805 5804 5802 5801 5799 5798 5796 5795 5794 5792 5791 5790 5789 5788 5787 5786 5785 5783 5782 5781 5781 5780 5779 5779
5815 5815 5815 5814 5814 5813 5812 5811 5810 5809 5808 5807 5806 5805 5804 5802 5801 5800 5798 5797 5796 5794 5793 5792 5790 5789 5787 5786 5785 5784 5782 5781 5780 5779 5777 5776 5775 5774 5773 5772 5771 5770 5769
5809 5809 5809 5808 5807 5807 5806 5805 5804 5803 5801 5800 5799 5798 5796 5795 5793 5792 5790 5789 5788 5786 5785 5783 5782 5781 5779 5778 5776 5775 5774 5772 5771 5770 5768 5767 5765 5764 5763 5762 5761 5760 5759
5802 5802 5802 5801 5801 5800 5799 5798 5797 5796 5795 5793 5792 5790 5788 5787 5785 5783 5782 5780 5779 5777 5776 5774 5773 5772 5770 5769 5767 5766 5764 5763 5761 5760 5758 5756 5755 5753 5752 5750 5749 5748 5747
5795 5795 5795 5794 5794 5793 5792 5791 5790 5789 5787 5786 5784 5782 5780 5779 5777 5775 5773 5771 5770 5768 5767 5765 5763 5762 5760 5759 5757 5755 5754 5752 5750 5749 5747 5745 5743 5742 5740 5738 5737 5736 5734
5788 5787 5787 5786 5786 5786 5785 5784 5782 5781 5779 5778 5776 5774 5772 5770 5768 5766 5764 5762 5761 5759 5757 5755 5753 5751 5750 5748 5746 5744 5742 5740 5739 5737 5735 5733 5731 5729 5727 5725 5724 5722 5721
5780 5780 5779 5779 5778 5778 5777 5776 5775 5773 5772 5770 5768 5766 5764 5762 5760 5757 5755 5753 5751 5749 5747 5745 5743 5741 5738 5736 5734 5732 5730 5728 5726 5724 5722 5720 5718 5715 5713 5711 5709 5707 5706
5771 5771 5771 5771 5770 5770 5769 5768 5767 5765 5764 5762 5760 5758 5756 5754 5751 5748 5746 5744 5741 5739 5736 5734 5732 5729 5727 5725 5722 5720 5718 5715 5713 5710 5708 5706 5703 5701 5698 5696 5694 5692 5690
5762 5762 5762 5762 5762 5762 5761 5760 5759 5757 5756 5754 5752 5750 5748 5745 5743 5740 5737 5734 5731 5728 5725 5723 5720 5717 5715 5712 5709 5706 5704 5701 5698 5695 5693 5690 5687 5684 5682 5679 5677 5674 5672
5753 5753 5753 5753 5753 5753 5752 5751 5750 5749 5747 5745 5743 5741 5739 5736 5734 5731 5728 5725 5721 5718 5714 5711 5708 5705 5702 5699 5696 5692 5689 5686 5683 5679 5676 5673 5670 5667 5664 5661 5658 5656 5653
5743 5743 5744 5744 5744 5744 5743 5742 5741 5740 5738 5736 5734 5732 5730 5727 5724 5721 5719 5715 5711 5707 5703 5698 5695 5691 5688 5685 5681 5678 5674 5671 5667 5663 5659 5655 5651 5647 5644 5641 5638 5635 5632
5732 5733 5734 5734 5734 5734 5734 5733 5732 5731 5729 5727 5725 5723 5720 5717 5714 5711 5708 5705 5701 5696 5691 5685 5681 5677 5673 5670 5666 5662 5658 5654 5650 5645 5641 5637 5632 5628 5624 5620 5616 5613 5610
5720 5722 5723 5724 5724 5724 5724 5723 5722 5721 5719 5718 5715 5713 5710 5707 5704 5701 5697 5694 5690 5686 5680 5674 5668 5663 5659 5654 5649 5645 5641 5636 5632 5627 5622 5617 5613 5608 5604 5599 5595 5590 5586
5709 5711 5712 5713 5714 5714 5714 5714 5713 5711 5709 5708 5706 5703 5700 5697 5693 5689 5685 5681 5677 5674 5669 5662 5655 5649 5644 5638 5633 5628 5623 5618 5612 5607 5602 5597 5591 5586 5581 5576 5571 5565 5560
5697 5700 5701 5703 5704 5704 5704 5704 5703 5701 5700 5698 5695 5692 5689 5685 5681 5677 5672 5668 5663 5659 5656 5650 5642 5635 5628 5622 5616 5610 5605 5599 5592 5586 5580 5574 5568 5562 5556 5550 5544 5537 5531
5686 5688 5690 5692 5693 5694 5694 5693 5693 5692 5690 5687 5685 5681 5677 5673 5668 5664 5659 5653 5648 5643 5638 5633 5626 5619 5612 5605 5598 5592 5586 5579 5572 5564 5557 5550 5543 5535 5528 5521 5514 5507 5500
5675 5678 5680 5682 5683 5684 5684 5684 5683 5682 5680 5677 5674 5670 5665 5661 5656 5650 5645 5639 5633 5627 5622 5616 5608 5601 5593 5586 5579 5571 5564 5556 5548 5539 5531 5522 5514 5506 5498 5490 5483 5476 5469
5664 5668 5670 5672 5674 5674 5675 5674 5674 5672 5670 5666 5663 5658 5653 5648 5642 5637 5631 5625 5618 5611 5605 5599 5592 5583 5574 5566 5559 5551 5542 5533 5523 5513 5503 5494 5485 5476 5467 5460 5453 5447 5442
5655 5659 5662 5664 5665 5665 5665 5665 5664 5662 5659 5655 5651 5646 5641 5635 5629 5623 5616 5610 5602 5595 5587 5580 5573 5564 5556 5546 5538 5529 5519 5508 5496 5485 5475 5466 5456 5447 5440 5433 5428 5423 5418
5647 5651 5654 5655 5656 5656 5656 5655 5654 5651 5648 5643 5639 5634 5628 5621 5615 5608 5601 5594 5586 5578 5569 5561 5554 5545 5536 5525 5515 5507 5498 5484 5471 5457 5447 5439 5431 5423 5416 5410 5406 5401 5398
5640 5643 5646 5647 5648 5648 5647 5646 5644 5640 5636 5631 5626 5620 5614 5607 5600 5593 5585 5577 5569 5561 5552 5543 5534 5525 5515 5504 5493 5482 5472 5462 5448 5433 5427 5418 5409 5403 5395 5389 5385 5382 5380
5633 5636 5638 5639 5639 5639 5638 5636 5633 5629 5624 5619 5613 5607 5600 5593 5585 5577 5568 5560 5550 5541 5532 5523 5514 5503 5492 5480 5469 5458 5447 5438 5430 5415 5407 5401 5391 5386 5378 5372 5367 5364 5362
5627 5629 5631 5632 5632 5630 5628 5625 5622 5617 5612 5607 5600 5593 5586 5578 5569 5561 5552 5543 5532 5520 5511 5501 5491 5479 5468 5457 5446 5436 5425 5416 5407 5396 5391 5388 5378 5372 5364 5357 5351 5348 5346
5621 5623 5624 5624 5623 5621 5618 5615 5611 5606 5600 5594 5587 5580 5572 5563 5554 5545 5537 5526 5514 5502 5491 5479 5468 5456 5444 5433 5424 5417 5408 5402 5393 5381 5373 5372 5365 5359 5352 5343 5336 5333 5332
5616 5616 5617 5616 5614 5612 5609 5605 5600 5594 5588 5581 5573 5565 5557 5548 5539 5530 5520 5509 5496 5483 5469 5457 5445 5434 5424 5415 5407 5401 5394 5387 5381 5370 5359 5355 5350 5345 5340 5332 5324 5320 5318
5610 5610 5609 5608 5605 5602 5598 5594 5589 5583 5576 5568 5560 5551 5542 5532 5522 5511 5500 5489 5477 5464 5451 5438 5427 5417 5409 5400 5392 5386 5379 5372 5365 5358 5348 5342 5336 5330 5329 5323 5314 5309 5306